This is the latest recevied weather packets stored in our database for station/object KO4FR. If no packets are shown the sender has not sent any weather packets the latest 10 day(s).
| Time | Temp. | Humidity | Pressure | Rain* | Wind** | Luminosity | Snow |
|---|---|---|---|---|---|---|---|
| 1777815597 | 11.67° C | 48% | 1019.6 hPa | 0 mm | - | - | - |
| 1777815297 | 11.67° C | 46% | 1019.5 hPa | 0 mm | - | - | - |
| 1777814997 | 11.11° C | 50% | 1019.4 hPa | 0 mm | - | - | - |
| 1777814697 | 11.11° C | 50% | 1019.4 hPa | 0 mm | - | - | - |
| 1777814397 | 10.56° C | 52% | 1019.5 hPa | 0 mm | - | - | - |
| 1777814097 | 10.56° C | 51% | 1019.4 hPa | 0 mm | - | - | - |
| 1777813797 | 10.56° C | 53% | 1019.4 hPa | 0 mm | - | - | - |
| 1777813497 | 10° C | 54% | 1019.4 hPa | 0 mm | - | - | - |
| 1777813197 | 10° C | 54% | 1019.3 hPa | 0 mm | - | - | - |
| 1777812897 | 10° C | 56% | 1019.2 hPa | 0 mm | - | - | - |
| 1777812597 | 10° C | 55% | 1019.2 hPa | 0 mm | - | - | - |
| 1777812297 | 9.44° C | 60% | 1019.3 hPa | 0 mm | - | - | - |
| 1777811998 | 9.44° C | 59% | 1019.3 hPa | 0 mm | - | - | - |
| 1777811697 | 8.89° C | 65% | 1019.1 hPa | 0 mm | - | - | - |
| 1777811397 | 8.89° C | 65% | 1019.1 hPa | 0 mm | - | - | - |
| 1777811097 | 8.33° C | 67% | 1019.1 hPa | 0 mm | - | - | - |
| 1777810797 | 8.33° C | 67% | 1019 hPa | 0 mm | - | - | - |
| 1777810497 | 7.78° C | 69% | 1019.1 hPa | 0 mm | - | - | - |
| 1777810197 | 7.22° C | 69% | 1019 hPa | 0 mm | - | - | - |
| 1777809897 | 6.67° C | 63% | 1018.8 hPa | 0 mm | - | - | - |
| 1777809597 | 6.11° C | 60% | 1018.8 hPa | 0 mm | - | - | - |
| 1777809297 | 5.56° C | 49% | 1018.8 hPa | 0 mm | - | - | - |
| 1777808997 | 5.56° C | 32% | 1018.6 hPa | 0 mm | - | - | - |
| 1777808697 | 5° C | 29% | 1018.5 hPa | 0 mm | - | - | - |
| 1777808397 | 4.44° C | 29% | 1018.4 hPa | 0 mm | - | - | - |
* Rain latest hour (hover to see other rain measurements)
** Current wind speed in m/s (hover to see current wind gust speed)